�������l�o���
Date,Time,MP-1(��Sv/h),MP-2(��Sv/h),MP-3(��Sv/h),MP-4(��Sv/h),MP-5(��Sv/h),MP-6(��Sv/h),MP-7(��Sv/h),MP-8(��Sv/h),����,����(m/s),���J
2020/11/15,00:00,0.672,0.976,0.616,1.211,0.863,0.385,0.677,0.636,���k��,3.1,��
2020/11/15,00:10,0.672,0.974,0.615,1.209,0.865,0.384,0.678,0.636,���k��,3.1,��
2020/11/15,00:20,0.672,0.975,0.615,1.209,0.864,0.386,0.677,0.636,���쐼,3.0,��
2020/11/15,00:30,0.671,0.976,0.613,1.209,0.866,0.385,0.677,0.637,���쐼,2.3,��
2020/11/15,00:40,0.671,0.973,0.615,1.210,0.866,0.385,0.677,0.636,���쐼,3.1,��
2020/11/15,00:50,0.672,0.975,0.615,1.211,0.866,0.384,0.678,0.637,��,3.6,��
2020/11/15,01:00,0.671,0.977,0.616,1.210,0.866,0.386,0.677,0.637,���쐼,3.4,��
2020/11/15,01:10,0.671,0.974,0.615,1.210,0.865,0.385,0.677,0.637,���쐼,3.0,��
2020/11/15,01:20,0.671,0.975,0.615,1.210,0.866,0.385,0.677,0.634,���쐼,3.9,��
2020/11/15,01:30,0.673,0.975,0.616,1.209,0.865,0.384,0.676,0.635,�쐼,3.6,��
2020/11/15,01:40,0.672,0.973,0.616,1.210,0.866,0.385,0.677,0.635,�쐼,3.3,��
2020/11/15,01:50,0.671,0.975,0.615,1.210,0.867,0.383,0.677,0.636,��쐼,2.6,��
2020/11/15,02:00,0.672,0.974,0.615,1.208,0.865,0.383,0.677,0.637,��쐼,2.9,��
2020/11/15,02:10,0.670,0.974,0.616,1.210,0.866,0.384,0.678,0.636,��,2.6,��
2020/11/15,02:20,0.672,0.974,0.615,1.209,0.866,0.382,0.677,0.636,��,2.3,��
2020/11/15,02:30,0.672,0.975,0.613,1.207,0.864,0.385,0.677,0.637,��,2.3,��
2020/11/15,02:40,0.672,0.973,0.615,1.210,0.866,0.384,0.677,0.635,��쓌,2.2,��
2020/11/15,02:50,0.672,0.972,0.617,1.209,0.866,0.385,0.675,0.636,��쓌,2.8,��
2020/11/15,03:00,0.673,0.974,0.614,1.211,0.865,0.384,0.676,0.636,��,2.9,��
2020/11/15,03:10,0.673,0.976,0.614,1.208,0.866,0.385,0.677,0.636,��쓌,3.4,��
2020/11/15,03:20,0.671,0.976,0.615,1.207,0.865,0.384,0.676,0.635,��,2.9,��
2020/11/15,03:30,0.672,0.975,0.615,1.208,0.864,0.385,0.676,0.636,��,2.3,��
2020/11/15,03:40,0.669,0.974,0.614,1.208,0.864,0.384,0.676,0.636,��쐼,2.9,��
2020/11/15,03:50,0.671,0.974,0.614,1.211,0.864,0.383,0.677,0.637,��쐼,3.6,��
2020/11/15,04:00,0.669,0.974,0.615,1.209,0.865,0.383,0.675,0.635,��쐼,4.2,��
2020/11/15,04:10,0.671,0.974,0.614,1.208,0.866,0.383,0.676,0.635,��쐼,4.0,��
2020/11/15,04:20,0.671,0.973,0.616,1.208,0.865,0.384,0.675,0.636,��,3.5,��
2020/11/15,04:30,0.672,0.974,0.613,1.210,0.865,0.385,0.676,0.637,��,3.1,��
2020/11/15,04:40,0.670,0.974,0.614,1.211,0.863,0.384,0.677,0.637,��,3.2,��
2020/11/15,04:50,0.672,0.974,0.616,1.208,0.863,0.384,0.677,0.636,��쐼,2.6,��
2020/11/15,05:00,0.673,0.975,0.614,1.209,0.863,0.384,0.675,0.635,��,2.8,��
2020/11/15,05:10,0.672,0.974,0.614,1.209,0.863,0.385,0.676,0.636,��,3.2,��
2020/11/15,05:20,0.670,0.974,0.614,1.210,0.863,0.385,0.677,0.637,��,3.2,��
2020/11/15,05:30,0.672,0.974,0.614,1.209,0.863,0.385,0.678,0.637,��,3.6,��
2020/11/15,05:40,0.670,0.976,0.614,1.207,0.863,0.385,0.674,0.636,��,3.7,��
2020/11/15,05:50,0.671,0.974,0.616,1.207,0.864,0.384,0.678,0.635,��,3.8,��
2020/11/15,06:00,0.671,0.975,0.614,1.208,0.865,0.383,0.676,0.636,��,3.5,��
2020/11/15,06:10,0.671,0.974,0.614,1.209,0.864,0.384,0.674,0.636,��,4.2,��
2020/11/15,06:20,0.671,0.974,0.615,1.210,0.865,0.385,0.676,0.635,��,4.3,��
2020/11/15,06:30,0.671,0.974,0.615,1.206,0.866,0.384,0.677,0.637,��,4.7,��
2020/11/15,06:40,0.670,0.974,0.615,1.208,0.864,0.385,0.676,0.637,��,5.0,��
2020/11/15,06:50,0.670,0.972,0.615,1.207,0.866,0.386,0.676,0.635,��,5.2,��
2020/11/15,07:00,0.670,0.974,0.614,1.208,0.864,0.385,0.675,0.637,��,4.9,��
2020/11/15,07:10,0.670,0.975,0.614,1.209,0.864,0.385,0.675,0.636,��,5.0,��
2020/11/15,07:20,0.670,0.976,0.614,1.210,0.863,0.385,0.675,0.637,��,4.7,��
2020/11/15,07:30,0.672,0.975,0.614,1.209,0.864,0.384,0.675,0.637,��,4.9,��
2020/11/15,07:40,0.672,0.976,0.615,1.212,0.864,0.385,0.677,0.634,��,6.1,��
2020/11/15,07:50,0.673,0.974,0.615,1.210,0.864,0.387,0.676,0.635,��,4.9,��
2020/11/15,08:00,0.673,0.976,0.614,1.208,0.865,0.386,0.677,0.637,��,5.1,��
2020/11/15,08:10,0.674,0.977,0.616,1.210,0.864,0.384,0.677,0.637,��,5.3,��
2020/11/15,08:20,0.673,0.975,0.616,1.211,0.864,0.385,0.678,0.635,��,5.7,��
2020/11/15,08:30,0.675,0.976,0.615,1.209,0.865,0.385,0.679,0.638,��쓌,4.8,��
2020/11/15,08:40,0.674,0.976,0.616,1.209,0.866,0.385,0.678,0.636,��쓌,5.5,��
2020/11/15,08:50,0.672,0.977,0.615,1.212,0.864,0.385,0.678,0.637,��,4.7,��
2020/11/15,09:00,0.674,0.976,0.617,1.211,0.865,0.385,0.679,0.637,��,5.0,��
2020/11/15,09:10,0.673,0.976,0.617,1.209,0.865,0.387,0.676,0.638,��쓌,5.4,��
2020/11/15,09:20,0.675,0.975,0.618,1.210,0.867,0.385,0.677,0.637,��,5.7,��
2020/11/15,09:30,0.675,0.974,0.616,1.210,0.868,0.385,0.678,0.637,��,6.5,��
2020/11/15,09:40,0.673,0.975,0.618,1.209,0.865,0.387,0.677,0.637,��,5.2,��
2020/11/15,09:50,0.675,0.974,0.616,1.212,0.864,0.387,0.677,0.636,��쓌,6.8,��
2020/11/15,10:00,0.675,0.975,0.617,1.211,0.865,0.387,0.678,0.639,��쓌,9.4,��
2020/11/15,10:10,0.675,0.975,0.617,1.210,0.867,0.387,0.676,0.639,��쓌,9.1,��
2020/11/15,10:20,0.676,0.974,0.617,1.211,0.866,0.385,0.678,0.637,��쓌,9.1,��
2020/11/15,10:30,0.674,0.974,0.616,1.212,0.866,0.385,0.677,0.639,��쓌,9.3,��
2020/11/15,10:40,0.673,0.976,0.617,1.213,0.866,0.385,0.678,0.638,��쓌,11.3,��
2020/11/15,10:50,0.673,0.975,0.616,1.211,0.866,0.384,0.677,0.639,��쓌,10.2,��
2020/11/15,11:00,0.674,0.977,0.615,1.211,0.863,0.385,0.677,0.638,��쓌,12.4,��
2020/11/15,11:10,0.674,0.979,0.617,1.212,0.867,0.385,0.677,0.637,��쓌,11.4,��
2020/11/15,11:20,0.675,0.977,0.617,1.211,0.864,0.385,0.679,0.638,��쓌,10.9,��
2020/11/15,11:30,0.677,0.977,0.617,1.212,0.867,0.383,0.679,0.638,��쓌,9.7,��
2020/11/15,11:40,0.674,0.979,0.618,1.211,0.869,0.385,0.679,0.640,��쓌,9.8,��
2020/11/15,11:50,0.675,0.979,0.617,1.209,0.867,0.385,0.679,0.639,��쓌,10.9,��
2020/11/15,12:00,0.676,0.978,0.616,1.210,0.865,0.385,0.679,0.639,��쓌,11.1,��
2020/11/15,12:10,0.674,0.981,0.616,1.209,0.866,0.387,0.677,0.637,��,10.8,��
2020/11/15,12:20,0.675,0.979,0.617,1.211,0.867,0.387,0.680,0.636,��쓌,10.3,��
2020/11/15,12:30,0.673,0.979,0.616,1.213,0.867,0.387,0.679,0.636,��,10.2,��
2020/11/15,12:40,0.675,0.979,0.617,1.212,0.867,0.388,0.678,0.634,��쓌,12.0,��
2020/11/15,12:50,0.676,0.978,0.618,1.211,0.867,0.388,0.679,0.635,��쓌,13.0,��
2020/11/15,13:00,0.676,0.981,0.616,1.210,0.867,0.388,0.678,0.634,��쓌,11.6,��
2020/11/15,13:10,0.677,0.980,0.616,1.211,0.865,0.388,0.677,0.636,��쓌,12.7,��
2020/11/15,13:20,0.677,0.979,0.618,1.212,0.869,0.388,0.679,0.636,��쓌,10.3,��
2020/11/15,13:30,0.677,0.980,0.617,1.212,0.868,0.388,0.678,0.637,��쓌,9.6,��
2020/11/15,13:40,0.676,0.981,0.616,1.211,0.866,0.387,0.679,0.635,��쓌,8.7,��
2020/11/15,13:50,0.677,0.981,0.617,1.213,0.866,0.388,0.678,0.635,��,8.6,��
2020/11/15,14:00,0.676,0.982,0.618,1.212,0.869,0.389,0.680,0.636,��쓌,9.9,��
2020/11/15,14:10,0.676,0.980,0.617,1.213,0.867,0.389,0.681,0.635,��,8.4,��
2020/11/15,14:20,0.679,0.981,0.616,1.211,0.865,0.388,0.679,0.635,��,10.2,��
2020/11/15,14:30,0.676,0.981,0.616,1.212,0.865,0.388,0.678,0.637,��쓌,7.6,��
2020/11/15,14:40,0.677,0.980,0.615,1.211,0.865,0.388,0.681,0.636,��쓌,7.4,��
2020/11/15,14:50,0.676,0.979,0.616,1.211,0.868,0.390,0.680,0.636,��,6.8,��
2020/11/15,15:00,0.676,0.982,0.617,1.213,0.867,0.389,0.679,0.634,��,6.1,��
2020/11/15,15:10,0.676,0.984,0.616,1.212,0.868,0.388,0.680,0.635,��,5.9,��
2020/11/15,15:20,0.676,0.983,0.615,1.208,0.867,0.389,0.681,0.636,��,5.9,��
2020/11/15,15:30,0.674,0.980,0.617,1.213,0.867,0.388,0.681,0.637,��,7.0,��
2020/11/15,15:40,0.677,0.983,0.616,1.212,0.868,0.389,0.680,0.637,��,5.8,��
2020/11/15,15:50,0.677,0.982,0.616,1.212,0.865,0.389,0.682,0.640,��,7.2,��
2020/11/15,16:00,0.675,0.983,0.615,1.210,0.866,0.388,0.681,0.637,��,7.5,��
2020/11/15,16:10,0.674,0.981,0.617,1.211,0.867,0.389,0.681,0.638,��,8.3,��
2020/11/15,16:20,0.676,0.982,0.616,1.210,0.866,0.388,0.679,0.639,��,7.4,��
2020/11/15,16:30,0.674,0.983,0.618,1.211,0.867,0.387,0.680,0.640,��,6.8,��
2020/11/15,16:40,0.675,0.985,0.617,1.212,0.867,0.389,0.681,0.638,��쐼,6.0,��
2020/11/15,16:50,0.675,0.981,0.619,1.211,0.867,0.386,0.679,0.637,��,5.4,��
2020/11/15,17:00,0.677,0.982,0.619,1.210,0.870,0.388,0.681,0.638,��,7.4,��
2020/11/15,17:10,0.680,0.983,0.618,1.210,0.871,0.388,0.681,0.639,��,7.6,��
2020/11/15,17:20,0.677,0.982,0.618,1.211,0.869,0.388,0.682,0.637,��,6.6,��
2020/11/15,17:30,0.677,0.983,0.619,1.213,0.870,0.388,0.680,0.637,��,7.7,��
2020/11/15,17:40,0.678,0.983,0.620,1.211,0.870,0.388,0.680,0.638,��쐼,7.8,��
2020/11/15,17:50,0.680,0.982,0.618,1.212,0.869,0.388,0.681,0.638,�쐼,6.2,��
2020/11/15,18:00,0.678,0.984,0.617,1.211,0.870,0.387,0.680,0.637,��쐼,6.3,��
2020/11/15,18:10,0.678,0.982,0.620,1.210,0.869,0.387,0.680,0.636,��쐼,6.0,��
2020/11/15,18:20,0.679,0.982,0.618,1.212,0.870,0.388,0.680,0.637,��,6.2,��
2020/11/15,18:30,0.679,0.981,0.618,1.211,0.868,0.387,0.679,0.638,��쐼,6.3,��
2020/11/15,18:40,0.677,0.981,0.618,1.211,0.869,0.388,0.681,0.638,��쐼,6.6,��
2020/11/15,18:50,0.677,0.983,0.619,1.211,0.870,0.388,0.680,0.637,��쐼,6.8,��
2020/11/15,19:00,0.679,0.982,0.618,1.210,0.867,0.387,0.682,0.638,��쐼,7.0,��
2020/11/15,19:10,0.678,0.981,0.620,1.212,0.869,0.387,0.680,0.638,��쐼,7.3,��
2020/11/15,19:20,0.678,0.980,0.618,1.211,0.869,0.388,0.679,0.636,��쐼,6.3,��
2020/11/15,19:30,0.678,0.983,0.619,1.213,0.868,0.388,0.681,0.638,��쐼,6.5,��
2020/11/15,19:40,0.679,0.980,0.618,1.211,0.870,0.388,0.680,0.638,��쐼,6.3,��
2020/11/15,19:50,0.678,0.980,0.618,1.211,0.869,0.386,0.680,0.639,��쐼,5.9,��
2020/11/15,20:00,0.677,0.980,0.618,1.209,0.868,0.386,0.680,0.638,��쐼,6.1,��
2020/11/15,20:10,0.679,0.979,0.617,1.210,0.869,0.387,0.681,0.637,��쐼,6.0,��
2020/11/15,20:20,0.678,0.982,0.620,1.212,0.870,0.386,0.679,0.637,��쐼,5.3,��
2020/11/15,20:30,0.679,0.979,0.618,1.209,0.868,0.386,0.679,0.636,��쐼,5.2,��
2020/11/15,20:40,0.680,0.981,0.618,1.211,0.868,0.387,0.680,0.638,��쐼,5.7,��
2020/11/15,20:50,0.679,0.980,0.618,1.210,0.869,0.387,0.681,0.636,��,5.8,��
2020/11/15,21:00,0.680,0.980,0.618,1.209,0.870,0.387,0.680,0.638,��쐼,5.9,��
2020/11/15,21:10,0.676,0.980,0.617,1.212,0.867,0.386,0.681,0.638,��쐼,6.5,��
2020/11/15,21:20,0.677,0.979,0.619,1.211,0.870,0.387,0.680,0.637,��쐼,6.4,��
2020/11/15,21:30,0.676,0.979,0.617,1.212,0.868,0.387,0.680,0.637,�쐼,7.7,��
2020/11/15,21:40,0.678,0.978,0.617,1.212,0.869,0.388,0.679,0.637,�쐼,6.6,��
2020/11/15,21:50,0.677,0.980,0.617,1.211,0.868,0.386,0.681,0.637,�쐼,5.5,��
2020/11/15,22:00,0.677,0.978,0.618,1.211,0.868,0.387,0.681,0.637,��쐼,4.8,��
2020/11/15,22:10,0.676,0.979,0.617,1.208,0.869,0.386,0.680,0.637,�쐼,5.4,��
2020/11/15,22:20,0.678,0.979,0.618,1.211,0.867,0.388,0.679,0.637,��쐼,5.9,��
2020/11/15,22:30,0.678,0.978,0.619,1.210,0.868,0.387,0.681,0.636,�쐼,6.0,��
2020/11/15,22:40,0.677,0.979,0.619,1.211,0.868,0.387,0.680,0.636,�쐼,5.7,��
2020/11/15,22:50,0.679,0.977,0.618,1.212,0.868,0.388,0.680,0.639,��쐼,5.8,��
2020/11/15,23:00,0.681,0.979,0.618,1.212,0.869,0.387,0.680,0.637,��쐼,5.1,��
2020/11/15,23:10,0.678,0.978,0.618,1.212,0.868,0.387,0.679,0.638,��쐼,5.2,��
2020/11/15,23:20,0.678,0.976,0.619,1.212,0.868,0.387,0.680,0.638,��쐼,6.7,��
2020/11/15,23:30,0.677,0.977,0.618,1.210,0.868,0.388,0.681,0.636,��쐼,5.8,��
2020/11/15,23:40,0.677,0.979,0.618,1.210,0.867,0.388,0.679,0.637,��쐼,6.4,��
2020/11/15,23:50,0.677,0.979,0.620,1.211,0.869,0.388,0.680,0.637,��쐼,7.3,��
